Volver al catálogo

CZ-3B DEB

ActivoHEO
NORAD 42458·DEBRIS·🇨🇳 China

Lanzado Sep 4, 2010 desde Xichang Satellite Launch Center

Loading…

Próximos Pases (próximas 24 horas)

TLE

ActualizadoSource: Space-Track

Época: Sep 13, 2026, 20:59 UTC

1 42458U 10042Z   26256.87448042  .00000017  00000-0  19322-2 0  9995
2 42458  29.4803 229.7127 7512433 265.4787  14.2977  1.81318839 78080

Sigue CZ-3B DEB en tiempo real con AllMySat

Download on the App Store